Location: Neuvy Saint Sepulchre
(46.5953°N, 1.8122°E)
Time: 16:14:30
(UTC+01:00)

Envisat - Pass Details

Date: 24 October 2021
Orbit: 764 x 766 km, 98.2° (Epoch: 04 December)

Event Time Altitude Azimuth Distance (km) Brightness Sun altitude
Rises 19:14:55 0° 205° (SSW) 3,220 6.8 -5.0°
Reaches altitude 10° 19:17:48 10° 222° (SW) 2,300 6.4 -5.5°
Maximum altitude 19:21:30 20° 269° (W) 1,711 6.1 -6.1°
Drops below altitude 10° 19:25:13 10° 316° (NW) 2,312 6.0 -6.7°
Sets 19:28:09 0° 333° (NNW) 3,244 6.5 -7.2°
